Location: Zagreb
(45.8000°N, 16.0000°E)
Time: 00:31:18
(UTC+02:00)

Envisat - Pass Details

Date: 27 April 2024
Orbit: 762 x 764 km, 98.3° (Epoch: 27 May)

Event Time Altitude Azimuth Distance (km) Brightness Sun altitude
Rises 04:52:21 0° 9° (N) 3,239 6.9 -9.7°
Reaches altitude 10° 04:54:43 10° 4° (N) 2,308 6.0 -9.4°
Maximum altitude 04:59:38 52° 290° (WNW) 948 3.3 -8.6°
Drops below altitude 10° 05:04:31 10° 215° (SW) 2,292 4.9 -7.9°
Enters shadow 05:05:27 - 212° (SSW) 2,656 5.3 -7.7°
